"Pseudo-MPEC" for P10Lbzy

Created 2019 Jan 12 21:18:21 UT using Find_Orb

Click here for an explanation of pseudo-MPECs

 
 Astrometry: 
     P10Lbzy  C2019 01 08!w*Astrometryy/xo#yjxkb/;.vEl*kw`u(M`7qWlHalW9aZl+37F51
     P10Lbzy  C2019 01 08!i@T*o61VM\3@+NfgMQ43dKZ`$jXk4EeBO[Yredacted;:k`wXZ(F51
     P10Lbzy  C2019 01 08aam3u-k?eG1TlPPvec6VJ34^ot+H3Q=NE*IRuirBTi*Vep@UDio(F51
     P10Lbzy  C2019 01 088=N7!Riwu;sOub3R']L]p3xVf%V@qMo.N!Q%vmy%hclick;ltwPFF51
     P10Lbzy |C2019 01 09Xk57!U.N$pW%H\!o5Z7QM2N#XbKO`D4Q3Shh[G_8L-u(V0bm;5%C807
     P10Lbzy |C2019 01 09WePcxV@xwg]6:Devu^n7NM4te@F,[#q1foA\6thereZW1JqV5m0d807
     P10Lbzy |C2019 01 09.K0TXE2)1RyRiiLIF^Mrnb?XL%k(9QrV\0h[BrlOKEnKAncH@10`807
     P10Lbzy ^C2019 01 09.65176410 26 55.087+07 55 20.49   ~19JI 21.65GVNEOCP568
     P10Lbzy ^C2019 01 09.65271110 26 55.056+07 55 20.45   ~19JI 21.76GVNEOCP568
     P10Lbzy ^C2019 01 09.65366410 26 55.022+07 55 20.46   ~19JI 21.72GVNEOCP568
     P10Lbzy KC2019 01 12@D[PZk?hk.qp-i3d2v2Sbvm,22A_k;]EforL4n/BeY*Tw=r0m*=U291
     P10Lbzy KC2019 01 12QBQ5w-N;AB%ca^Go\gF2q=Aw')jW?uSq00H=^c^[hv'#l=B3cT_Z291
     P10Lbzy KC2019 01 12RV#f6K^Nexplanation4vcWR`^V,Uxs,XR[oGnOsF+SILCt0Lb`5291

Station data:
(291) LPL/Spacewatch II  (N31.961669 W111.599905)  US/Arizona.  Observers J.
   V. Scotti, R. S. McMillan. 1.8-m f/2.7 reflector + CCD.
(568) Mauna Kea  (N19.826116 W155.472200)  US/Hawaii.
(807) Cerro Tololo Observatory, La Serena  (S30.169136 W70.805900)  Chile.
   1.5-m Ritchey-Chrétien.
(F51) Pan-STARRS 1, Haleakala  (N20.707235 W156.255910)  US/Hawaii.
   Observers N. Primak, A. Schultz, S. Watters, J. Thiel, T. Goggia. Measurer
   PS1 Science Consortium. 1.8-m Ritchey-Chrétien + CCD.

Orbital elements:  P10Lbzy
   Perihelion 2018 Feb 22.366019 +/- 44.9 TT =  8:47:04 (JD 2458171.866019)
Epoch 2019 Jan 12.0 TT = JDT 2458495.5   Earth MOID: 0.5656   AutoNEOCP
M  89.58599506 +/- 21               (J2000 ecliptic)
n   0.27681269 +/- 0.0345           Peri.   63.25443 +/- 13
a   2.33173242 +/- 0.193            Node   310.90287 +/- 0.6
e   0.3369821 +/- 0.0488            Incl.    7.90774 +/- 0.40
P   3.56                   H 18.0   G  0.15   U 10.5  
q 1.54598019 +/- 0.0192    Q 3.11748465 +/- 0.408
From 13 observations 2019 Jan. 8-12; mean residual 0".10
Residuals in arcseconds: 
190108 F51  .07-  .01-    190109 807  .29-  .10+    190112 291  .09-  .06+    
190108 F51  .07+  .03-    190109 807  .14-  .13+    190112 291  .04+  .04+    
190108 F51  .15+  .02-    190109 568  .11+  .09-    190112 291  .04+  .08-    
190108 F51  .01+  .06-    190109 568  .11+  .12-    
190109 807  .01+  .16+    190109 568  .07+  .09-    

Ephemerides (geocentric):
Date (UTC) HH   RA              Dec         delta   r     elong  mag " sig PA
---- -- -- --  -------------   -----------  ------ ------ -----  --- ---- ---
2019 01 12 21  10 25 05.327   +07 55 27.46  1.7690 2.5768 137.0 22.1 .241   9
2019 01 12 22  10 25 03.791   +07 55 28.15  1.7688 2.5769 137.0 22.1 .258   9
2019 01 12 23  10 25 02.251   +07 55 28.86  1.7685 2.5770 137.1 22.1 .275   9
2019 01 13 00  10 25 00.709   +07 55 29.59  1.7682 2.5772 137.1 22.1 .292  10
2019 01 13 01  10 24 59.164   +07 55 30.33  1.7680 2.5773 137.1 22.1 .310  10
2019 01 13 02  10 24 57.615   +07 55 31.08  1.7677 2.5774 137.2 22.1 .328  10
2019 01 13 03  10 24 56.064   +07 55 31.85  1.7675 2.5776 137.2 22.1 .346  10
2019 01 13 04  10 24 54.510   +07 55 32.64  1.7672 2.5777 137.3 22.1 .365  11
2019 01 13 05  10 24 52.953   +07 55 33.44  1.7669 2.5779 137.3 22.1 .383  11
2019 01 13 06  10 24 51.393   +07 55 34.26  1.7667 2.5780 137.4 22.1 .403  11
2019 01 13 07  10 24 49.830   +07 55 35.10  1.7664 2.5781 137.4 22.1 .422  11
2019 01 13 08  10 24 48.265   +07 55 35.95  1.7662 2.5783 137.5 22.1 .442  12
2019 01 13 09  10 24 46.696   +07 55 36.81  1.7659 2.5784 137.5 22.1 .462  12
2019 01 13 10  10 24 45.125   +07 55 37.69  1.7656 2.5785 137.6 22.1 .482  12
2019 01 13 11  10 24 43.550   +07 55 38.59  1.7654 2.5787 137.6 22.1 .503  12
2019 01 13 12  10 24 41.973   +07 55 39.50  1.7651 2.5788 137.7 22.1 .524  13
2019 01 13 13  10 24 40.393   +07 55 40.43  1.7649 2.5789 137.7 22.1 .545  13
2019 01 13 14  10 24 38.810   +07 55 41.37  1.7646 2.5791 137.8 22.1 .566  13
2019 01 13 15  10 24 37.224   +07 55 42.33  1.7643 2.5792 137.8 22.1 .588  13
2019 01 13 16  10 24 35.635   +07 55 43.30  1.7641 2.5793 137.9 22.1 .610  14
2019 01 13 17  10 24 34.044   +07 55 44.29  1.7638 2.5795 137.9 22.1 .633  14
2019 01 13 18  10 24 32.449   +07 55 45.29  1.7636 2.5796 138.0 22.1 .655  14
2019 01 13 19  10 24 30.852   +07 55 46.31  1.7633 2.5798 138.0 22.1 .678  14
2019 01 13 20  10 24 29.252   +07 55 47.35  1.7631 2.5799 138.1 22.1 .702  15
2019 01 13 21  10 24 27.648   +07 55 48.40  1.7628 2.5800 138.1 22.1 .725  15
2019 01 13 22  10 24 26.042   +07 55 49.47  1.7626 2.5802 138.2 22.1 .749  15
2019 01 13 23  10 24 24.433   +07 55 50.55  1.7623 2.5803 138.2 22.1 .774  15
2019 01 14 00  10 24 22.822   +07 55 51.65  1.7621 2.5804 138.3 22.1 .798  15
2019 01 14 01  10 24 21.207   +07 55 52.76  1.7618 2.5806 138.3 22.1 .823  16
2019 01 14 02  10 24 19.590   +07 55 53.89  1.7615 2.5807 138.4 22.1 .848  16
2019 01 14 03  10 24 17.969   +07 55 55.03  1.7613 2.5808 138.4 22.1 .874  16
2019 01 14 04  10 24 16.346   +07 55 56.19  1.7610 2.5810 138.5 22.1 .900  16
2019 01 14 05  10 24 14.720   +07 55 57.37  1.7608 2.5811 138.5 22.1 .926  17
2019 01 14 06  10 24 13.091   +07 55 58.56  1.7605 2.5812 138.6 22.1 .952  17
2019 01 14 07  10 24 11.459   +07 55 59.76  1.7603 2.5814 138.6 22.1 .979  17
2019 01 14 08  10 24 09.825   +07 56 00.98  1.7600 2.5815 138.7 22.1 1.01  17
2019 01 14 09  10 24 08.187   +07 56 02.22  1.7598 2.5817 138.7 22.1 1.03  17
2019 01 14 10  10 24 06.547   +07 56 03.47  1.7595 2.5818 138.8 22.1 1.06  18
2019 01 14 11  10 24 04.904   +07 56 04.74  1.7593 2.5819 138.8 22.1 1.09  18
2019 01 14 12  10 24 03.257   +07 56 06.02  1.7590 2.5821 138.8 22.1 1.12  18
2019 01 14 13  10 24 01.609   +07 56 07.32  1.7588 2.5822 138.9 22.1 1.15  18
2019 01 14 14  10 23 59.957   +07 56 08.63  1.7585 2.5823 138.9 22.1 1.18  19
2019 01 14 15  10 23 58.302   +07 56 09.96  1.7583 2.5825 139.0 22.1 1.21  19
2019 01 14 16  10 23 56.645   +07 56 11.30  1.7580 2.5826 139.0 22.1 1.23  19
2019 01 14 17  10 23 54.985   +07 56 12.66  1.7578 2.5827 139.1 22.1 1.27  19
2019 01 14 18  10 23 53.322   +07 56 14.04  1.7575 2.5829 139.1 22.1 1.30  19
2019 01 14 19  10 23 51.656   +07 56 15.43  1.7573 2.5830 139.2 22.1 1.33  20
2019 01 14 20  10 23 49.987   +07 56 16.83  1.7570 2.5831 139.2 22.1 1.36  20